Regional Weather Roundup
Issued by NWS

Home | Current Version | Previous Version | Graphics & Text | Print | Product List | Glossary Off
Versions: 1 2 3 4 5 6 7 8 9 10 11 12 13 14 15 16 17 18 19 20 21 22 23 24 25 26 27 28 29 30 31 32 33 34 35 36 37 38 39 40 41 42 43 44 45 46 47 48 49 50

000
ASUS43 KLSX 051010
RWRMO

WEATHER SUMMARY FOR MISSOURI
NATIONAL WEATHER SERVICE SPRINGFIELD MO
500 AM CDT SAT SEP 05 2015

NOTE: "FAIR" INDICATES FEW OR NO CLOUDS BELOW 12,000 FEET WITH NO
       SIGNIFICANT WEATHER AND/OR OBSTRUCTIONS TO VISIBILITY.
       CURRENT SKY AND/OR WEATHER CONDITIONS ARE NOT AVAILABLE FOR
       CHILLICOTHE AND FARMINGTON.

MOZ001>031-035>038-043-044-053-054-051100-
...NORTHERN AND WESTERN MISSOURI...

CITY           SKY/WX    TMP DP  RH WIND       PRES   REMARKS
KANSAS CTY INT CLEAR     73  68  84 S9        30.00R
KANSAS C DTWN  CLEAR     78  69  73 SW3       29.99R
LEE`S SUMMIT   CLEAR     75  68  78 S8        30.02R
ST JOSEPH      CLEAR     72  69  90 S6        29.98S
CHILLICOTHE      N/A     71  69  93 CALM      30.03R
KIRKSVILLE     CLEAR     70  67  90 S5        30.05R

$$
MOZ066>068-077>081-088>096-101>105-051100-
...SOUTHWEST MISSOURI...

CITY           SKY/WX    TMP DP  RH WIND       PRES   REMARKS
SPRINGFIELD    CLEAR     74  66  76 SE9       30.05R
JOPLIN         CLEAR     74  68  81 S8        30.02R

$$
MOZ032>034-039>042-045>050-055>058-069>072-051100-
...CENTRAL MISSOURI...

CITY           SKY/WX    TMP DP  RH WIND       PRES   REMARKS
COLUMBIA       CLEAR     72  69  90 SE6       30.06R
JEFFERSON CITY CLEAR     71  68  90 CALM      30.04R
ROLLA          CLEAR     70  67  90 S6        30.06R
SEDALIA        CLEAR     72  68  87 SE6       30.05R
WHITEMAN AFB   CLEAR     73  69  86 S5        30.02R
WARRENSBURG    CLEAR     72  66  83 SE6       30.02R
OSAGE BEACH    CLEAR     72  66  83 S3        30.06R

$$
MOZ051-052-059>065-051100-
...EAST CENTRAL MISSOURI...

CITY           SKY/WX    TMP DP  RH WIND       PRES   REMARKS
ST LOUIS INTL  CLEAR     79  67  66 CALM      30.06R
SPIRIT OF STL  CLEAR     69  69 100 CALM      30.04R
ST CHARLES     CLEAR     70  69  97 CALM      30.04R

$$
MOZ072>076-082>087-097>100-106>115-051100-
...SOUTH CENTRAL AND SOUTHEAST MISSOURI...

CITY           SKY/WX    TMP DP  RH WIND       PRES   REMARKS
CAPE GIRARDEAU FOG       67  67 100 CALM      30.05R VSB 1/4
FARMINGTON     CLEAR     68  66  94 CALM      30.10R
POPLAR BLUFF   CLEAR     69  68  96 CALM      30.03R
WEST PLAINS    CLEAR     69  66  90 CALM      30.09R FOG

$$



USA.gov is the U.S. government's official web portal to all federal, state and local government web resources and services.